This demonstration page uses our WeatherBlox Daily Observations layout. Learn more.

Left ArrowRight Arrow

Hourly Observations for November 27, 2018

Temp ( °F °C ) Dew Point ( °F °C ) Humidity (%) Winds ( mph kmh ) Pressure ( in mb ) Visibility ( mi km ) Precip ( " mm )
12:53 am 00:53 Cloudy 46 7.8 22 -5.6 38 38 SW 21 33 29.79 1009 10 16 N/A
1:53 am 01:53 Cloudy 46 7.8 23 -5 40 40 SSW 24 39 29.75 1008 10 16 N/A
2:53 am 02:53 Mostly Clear 46 7.8 23 -5 40 40 SW 16 26 29.77 1008 10 16 N/A
3:53 am 03:53 Cloudy 46 7.8 25 -3.9 44 44 WSW 17 28 29.74 1007 10 16 N/A
4:53 am 04:53 Clear 42 5.6 25 -3.9 51 51 N 9 15 29.75 1008 10 16 N/A
5:53 am 05:53 Clear 45 7.2 27 -2.8 49 49 WSW 15 24 29.72 1007 10 16 N/A
6:53 am 06:53 Mostly Clear 44 6.7 28 -2.2 53 53 WSW 8 13 29.72 1006 10 16 N/A
7:53 am 07:53 Sunny 44 6.7 29 -1.7 55 55 SW 13 20 29.70 1006 10 16 N/A
8:53 am 08:53 Mostly Sunny 45 7.2 30 -1.1 56 56 SW 17 28 29.68 1005 10 16 N/A
9:53 am 09:53 Cloudy 49 9.4 29 -1.7 46 46 SW 17 28 29.67 1005 10 16 N/A
10:53 am 10:53 Cloudy 50 10 30 -1.1 46 46 SW 17 28 29.63 1004 10 16 N/A
11:53 am 11:53 Cloudy 52 11.1 32 undefined 47 47 SW 15 24 29.58 1002 10 16 N/A
12:53 pm 12:53 Cloudy 53 11.7 33 0.6 47 47 SW 18 30 29.55 1001 10 16 N/A
1:53 pm 13:53 Cloudy 55 12.8 34 1.1 45 45 WSW 18 30 29.53 1000 10 16 N/A
2:53 pm 14:53 Sunny 56 13.3 34 1.1 44 44 WSW 17 28 29.52 1000 10 16 N/A
3:53 pm 15:53 Sunny 48 8.9 33 0.6 56 56 WSW 13 20 29.54 1000 10 16 N/A
4:53 pm 16:53 Clear 44 6.7 33 0.6 65 65 WSW 9 15 29.56 1001 10 16 N/A
5:53 pm 17:53 Clear 42 5.6 32 undefined 68 68 SW 10 17 29.55 1001 10 16 N/A
6:53 pm 18:53 Clear 40 4.4 32 undefined 73 73 SW 12 19 29.55 1001 10 16 N/A
7:53 pm 19:53 Clear 40 4.4 32 undefined 73 73 SW 14 22 29.56 1001 10 16 N/A
8:53 pm 20:53 Clear 43 6.1 33 0.6 68 68 SW 16 26 29.54 1001 10 16 N/A
9:53 pm 21:53 Clear 43 6.1 33 0.6 68 68 SW 14 22 29.55 1001 10 16 N/A
10:53 pm 22:53 Clear 45 7.2 33 0.6 63 63 SW 15 24 29.53 1000 10 16 N/A
11:53 pm 23:53 Mostly Clear 42 5.6 33 0.6 71 71 WSW 12 19 29.56 1001 10 16 N/A

Powered by AerisWeather